| time (UTC) | temp C | wind direction | speed KPH | gust KPH | rain 1hr cm | rain 24hr cm | rain mn cm | humidity % | barometer mb |
| 20260906131535 | 17 | 304 | 0.0 | 0.0 | 0.00 | 0.00 | 0.00 | 78 | 1005.2 |
| 20260906130040 | 16 | 348 | 0.0 | 0.0 | 0.00 | 0.00 | 0.00 | 78 | 1005.2 |
| 20260906124528 | 16 | 348 | 0.0 | 0.0 | 0.00 | 0.00 | 0.00 | 76 | 1005.0 |
| 20260906123027 | 16 | 348 | 0.0 | 0.0 | 0.00 | 0.00 | 0.00 | 75 | 1004.9 |
| 20260906121525 | 16 | 348 | 0.0 | 0.0 | 0.00 | 0.00 | 0.00 | 75 | 1004.8 |
| 20260906120023 | 16 | 348 | 0.0 | 0.0 | 0.00 | 0.00 | 0.00 | 75 | 1004.8 |
| 20260906114523 | 16 | 348 | 0.0 | 0.0 | 0.00 | 0.00 | 0.00 | 74 | 1004.7 |
| 20260906113021 | 16 | 348 | 0.0 | 0.0 | 0.00 | 0.00 | 0.00 | 73 | 1004.8 |
| 20260906111518 | 16 | 347 | 0.0 | 0.0 | 0.00 | 0.00 | 0.00 | 73 | 1004.6 |
| 20260906110017 | 17 | 346 | 0.0 | 0.0 | 0.00 | 0.00 | 0.00 | 72 | 1004.4 |
| 20260906104516 | 17 | 347 | 0.0 | 0.0 | 0.00 | 0.00 | 0.00 | 71 | 1004.6 |
| 20260906103015 | 17 | 346 | 0.0 | 0.0 | 0.00 | 0.00 | 0.00 | 72 | 1004.3 |
| 20260906101512 | 17 | 346 | 0.0 | 0.0 | 0.00 | 0.00 | 0.00 | 72 | 1004.4 |
| 20260906100010 | 17 | 350 | 0.0 | 0.0 | 0.00 | 0.00 | 0.00 | 70 | 1004.3 |
| 20260906094510 | 18 | 350 | 0.0 | 0.0 | 0.00 | 0.00 | 0.00 | 68 | 1004.3 |
| 20260906093012 | 18 | 350 | 0.0 | 0.0 | 0.00 | 0.00 | 0.00 | 66 | 1004.4 |
| 20260906091502 | 18 | 350 | 0.0 | 0.0 | 0.00 | 0.00 | 0.00 | 61 | 1004.2 |
| 20260906090125 | 19 | 350 | 0.0 | 0.0 | 0.00 | 0.00 | 0.00 | 58 | 1004.0 |
| 20260906084557 | 20 | 350 | 0.0 | 1.6 | 0.00 | 0.00 | 0.00 | 54 | 1003.9 |
| 20260906083054 | 20 | 267 | 0.0 | 0.0 | 0.00 | 0.00 | 0.00 | 52 | 1003.7 |
| 20260906081551 | 20 | 267 | 0.0 | 0.0 | 0.00 | 0.00 | 0.00 | 49 | 1003.7 |
| 20260906080057 | 20 | 236 | 0.0 | 0.0 | 0.00 | 0.00 | 0.00 | 49 | 1003.7 |
| 20260906074555 | 20 | 200 | 0.0 | 0.0 | 0.00 | 0.00 | 0.00 | 49 | 1003.7 |
| 20260906073046 | 21 | 200 | 0.0 | 0.0 | 0.00 | 0.00 | 0.00 | 48 | 1003.7 |
| 20260906071545 | 21 | 200 | 0.0 | 0.0 | 0.00 | 0.00 | 0.00 | 48 | 1003.7 |
| 20260906070044 | 21 | 200 | 0.0 | 0.0 | 0.00 | 0.00 | 0.00 | 49 | 1003.7 |
| 20260906064542 | 21 | 200 | 0.0 | 0.0 | 0.00 | 0.00 | 0.00 | 46 | 1003.7 |
| 20260906063040 | 22 | 200 | 0.0 | 0.0 | 0.00 | 0.00 | 0.00 | 45 | 1004.0 |
| 20260906061540 | 22 | 200 | 0.0 | 1.6 | 0.00 | 0.00 | 0.00 | 44 | 1003.9 |
| 20260906060037 | 22 | 159 | 0.0 | 0.0 | 0.00 | 0.00 | 0.00 | 44 | 1003.8 |
| 20260906054535 | 23 | 159 | 0.0 | 0.0 | 0.00 | 0.00 | 0.00 | 43 | 1003.5 |
| 20260906053034 | 23 | 159 | 0.0 | 0.0 | 0.00 | 0.00 | 0.00 | 42 | 1004.3 |
| 20260906051534 | 22 | 360 | 0.0 | 0.0 | 0.00 | 0.00 | 0.00 | 43 | 1004.6 |
| 20260906050032 | 22 | 360 | 0.0 | 6.4 | 0.00 | 0.00 | 0.00 | 45 | 1004.4 |
| 20260906044533 | 22 | 355 | 0.0 | 0.0 | 0.00 | 0.00 | 0.00 | 46 | 1003.8 |
| 20260906043028 | 22 | 355 | 0.0 | 1.6 | 0.00 | 0.00 | 0.00 | 43 | 1003.8 |
| 20260906041538 | 22 | 355 | 0.0 | 0.0 | 0.00 | 0.00 | 0.00 | 44 | 1003.6 |
| 20260906040026 | 23 | 355 | 0.0 | 0.0 | 0.00 | 0.00 | 0.00 | 42 | 1003.2 |
| 20260906034530 | 23 | 355 | 0.0 | 0.0 | 0.00 | 0.00 | 0.00 | 40 | 1002.9 |
| 20260906033028 | 23 | 355 | 0.0 | 0.0 | 0.00 | 0.00 | 0.00 | 40 | 1002.8 |
| 20260906031524 | 23 | 351 | 0.0 | 0.0 | 0.00 | 0.00 | 0.00 | 39 | 1002.8 |
| 20260906030025 | 24 | 283 | 0.0 | 0.0 | 0.00 | 0.00 | 0.00 | 38 | 1002.3 |
| 20260906024523 | 25 | 282 | 0.0 | 0.0 | 0.00 | 0.00 | 0.00 | 34 | 1001.8 |
| 20260906023024 | 26 | 283 | 0.0 | 0.0 | 0.00 | 0.00 | 0.00 | 33 | 1001.7 |
| 20260906021523 | 26 | 283 | 0.0 | 1.6 | 0.00 | 0.00 | 0.00 | 32 | 1001.5 |
| 20260906020023 | 27 | 285 | 0.0 | 4.8 | 0.00 | 0.00 | 0.00 | 31 | 1001.5 |
| 20260906014527 | 27 | 279 | 0.0 | 4.8 | 0.00 | 0.00 | 0.00 | 31 | 1001.6 |
| 20260906013022 | 27 | 281 | 0.0 | 3.2 | 0.00 | 0.00 | 0.00 | 31 | 1001.2 |
| 20260906011521 | 27 | 284 | 0.0 | 6.4 | 0.00 | 0.00 | 0.00 | 30 | 1001.4 |
| 20260906010020 | 28 | 273 | 0.0 | 9.7 | 0.00 | 0.00 | 0.00 | 30 | 1001.3 |
| 20260906004520 | 28 | 279 | 0.0 | 17.7 | 0.00 | 0.00 | 0.00 | 29 | 1001.4 |
| 20260906003019 | 30 | 252 | 1.6 | 11.3 | 0.00 | 0.00 | 0.00 | 27 | 1001.5 |
| 20260906001517 | 30 | 292 | 0.0 | 0.0 | 0.00 | 0.00 | 0.00 | 26 | 1001.4 |
| 20260906000017 | 31 | 292 | 0.0 | 0.0 | 0.00 | 0.00 | 0.00 | 24 | 1001.3 |
| 20260905234516 | 31 | 298 | 0.0 | 1.6 | 0.00 | 0.00 | 0.00 | 25 | 1001.3 |
| 20260905233014 | 30 | 303 | 0.0 | 4.8 | 0.00 | 0.00 | 0.00 | 25 | 1001.2 |
| 20260905231513 | 31 | 11 | 0.0 | 6.4 | 0.00 | 0.00 | 0.00 | 23 | 1001.1 |
| 20260905230011 | 32 | 355 | 0.0 | 1.6 | 0.00 | 0.00 | 0.00 | 24 | 1000.9 |
| 20260905224517 | 31 | 317 | 0.0 | 1.6 | 0.00 | 0.00 | 0.00 | 23 | 1000.9 |
| 20260905223010 | 32 | 13 | 0.0 | 6.4 | 0.00 | 0.00 | 0.00 | 23 | 1000.8 |
| 20260905221519 | 32 | 288 | 0.0 | 4.8 | 0.00 | 0.00 | 0.00 | 21 | 1000.9 |
| 20260905220005 | 32 | 5 | 0.0 | 3.2 | 0.00 | 0.00 | 0.00 | 21 | 1001.1 |
| 20260905214503 | 32 | 360 | 0.0 | 8.0 | 0.00 | 0.00 | 0.00 | 22 | 1001.2 |
| 20260905213003 | 31 | 360 | 0.0 | 8.0 | 0.00 | 0.00 | 0.00 | 22 | 1001.4 |
| 20260905211501 | 32 | 360 | 0.0 | 9.7 | 0.00 | 0.00 | 0.00 | 24 | 1001.6 |
| 20260905210059 | 32 | 302 | 0.0 | 9.7 | 0.00 | 0.00 | 0.00 | 22 | 1001.6 |
| 20260905204557 | 31 | 329 | 0.0 | 17.7 | 0.00 | 0.00 | 0.00 | 26 | 1001.8 |
| 20260905203058 | 32 | 13 | 1.6 | 6.4 | 0.00 | 0.00 | 0.00 | 24 | 1002.1 |
| 20260905201606 | 32 | 34 | 0.0 | 3.2 | 0.00 | 0.00 | 0.00 | 27 | 1002.2 |
| 20260905200052 | 31 | 311 | 0.0 | 12.9 | 0.00 | 0.00 | 0.00 | 24 | 1002.3 |
| 20260905194550 | 30 | 360 | 0.0 | 9.7 | 0.00 | 0.00 | 0.00 | 24 | 1002.5 |
| 20260905193049 | 30 | 360 | 0.0 | 12.9 | 0.00 | 0.00 | 0.00 | 24 | 1002.7 |
| 20260905191551 | 30 | 360 | 0.0 | 16.1 | 0.00 | 0.00 | 0.00 | 26 | 1002.8 |
| 20260905190100 | 30 | 360 | 3.2 | 12.9 | 0.00 | 0.00 | 0.00 | 26 | 1003.0 |
| 20260905184600 | 30 | 68 | 0.0 | 9.7 | 0.00 | 0.00 | 0.00 | 26 | 1003.0 |
| 20260905183044 | 30 | 11 | 0.0 | 8.0 | 0.00 | 0.00 | 0.00 | 26 | 1003.2 |
| 20260905181542 | 29 | 57 | 0.0 | 6.4 | 0.00 | 0.00 | 0.00 | 28 | 1003.4 |
| 20260905180041 | 29 | 360 | 0.0 | 1.6 | 0.00 | 0.00 | 0.00 | 29 | 1003.6 |
| 20260905174545 | 29 | 360 | 0.0 | 9.7 | 0.00 | 0.00 | 0.00 | 32 | 1003.7 |
| 20260905173040 | 27 | 360 | 0.0 | 8.0 | 0.00 | 0.00 | 0.00 | 31 | 1003.7 |
| 20260905171539 | 27 | 360 | 3.2 | 9.7 | 0.00 | 0.00 | 0.00 | 34 | 1003.6 |
| 20260905170037 | 28 | 360 | 4.8 | 17.7 | 0.00 | 0.00 | 0.00 | 34 | 1003.5 |
| 20260905164534 | 27 | 360 | 1.6 | 4.8 | 0.00 | 0.00 | 0.00 | 37 | 1003.5 |
| 20260905163033 | 27 | 360 | 0.0 | 4.8 | 0.00 | 0.00 | 0.00 | 34 | 1003.5 |
| 20260905161530 | 27 | 360 | 0.0 | 1.6 | 0.00 | 0.00 | 0.00 | 35 | 1003.4 |
| 20260905160030 | 27 | 70 | 0.0 | 0.0 | 0.00 | 0.00 | 0.00 | 35 | 1003.4 |
| 20260905154526 | 28 | 255 | 0.0 | 0.0 | 0.00 | 0.00 | 0.00 | 37 | 1003.4 |
| 20260905153022 | 27 | 255 | 0.0 | 0.0 | 0.00 | 0.00 | 0.00 | 39 | 1003.4 |
| 20260905151520 | 26 | 255 | 0.0 | 0.0 | 0.00 | 0.00 | 0.00 | 38 | 1003.5 |
| 20260905150019 | 26 | 255 | 0.0 | 0.0 | 0.00 | 0.00 | 0.00 | 37 | 1003.6 |
| 20260905144517 | 26 | 256 | 0.0 | 0.0 | 0.00 | 0.00 | 0.00 | 33 | 1003.6 |
| 20260905143019 | 25 | 256 | 0.0 | 0.0 | 0.00 | 0.00 | 0.00 | 35 | 1003.7 |
| 20260905141510 | 25 | 281 | 0.0 | 0.0 | 0.00 | 0.00 | 0.00 | 40 | 1003.7 |
| 20260905140005 | 22 | 281 | 0.0 | 0.0 | 0.00 | 0.00 | 0.00 | 46 | 1003.6 |
| 20260905134601 | 20 | 281 | 0.0 | 0.0 | 0.00 | 0.00 | 0.00 | 47 | 1003.6 |
| 20260905133057 | 18 | 281 | 0.0 | 0.0 | 0.00 | 0.00 | 0.00 | 50 | 1003.6 |